EW5625 Weather Reports


Display with metric or nautical units.
time (UTC)temp
F
wind
direction
speed
MPH
gust
MPH
rain 1hr
in
rain 24hr
in
rain mn
in
humidity
%
barometer
mb
20260505003010 65 187 0.0 0.0 0.00 0.00 0.00 53 1011.0
20260505001510 66 221 0.0 0.0 0.00 0.00 0.00 52 1010.8
20260505000010 66 166 0.0 0.0 0.00 0.00 0.00 51 1010.8
20260504234507 68 245 0.0 0.0 0.00 0.00 0.00 50 1010.8
20260504233007 69 248 0.0 0.0 0.00 0.00 0.00 48 1010.9
20260504231505 71 251 0.0 0.0 0.00 0.00 0.00 48 1010.9
20260504230004 71 186 0.0 0.0 0.00 0.00 0.00 46 1010.9
20260504224506 72 226 0.0 0.0 0.00 0.00 0.00 45 1010.9
20260504223002 72 237 0.0 0.0 0.00 0.00 0.00 46 1010.9
20260504221501 72 273 0.0 0.0 0.00 0.00 0.00 44 1010.9
20260504220135 72 224 0.0 0.0 0.00 0.00 0.00 44 1010.9
20260504214558 73 229 0.0 0.0 0.00 0.00 0.00 44 1011.0
20260504213123 72 297 0.0 0.0 0.00 0.00 0.00 44 1011.1
20260504211558 72 290 0.0 0.0 0.00 0.00 0.00 44 1011.0
20260504210101 72 233 0.0 0.0 0.00 0.00 0.00 42 1011.0
20260504204604 72 274 0.0 0.0 0.00 0.00 0.00 44 1011.1
20260504203053 72 311 0.0 0.0 0.00 0.00 0.00 44 1011.1
20260504201551 73 226 0.0 0.0 0.00 0.00 0.00 44 1011.3
20260504200048 72 184 0.0 0.0 0.00 0.00 0.00 45 1011.6
20260504194546 71 167 0.0 0.0 0.00 0.00 0.00 45 1011.8
20260504193043 72 167 0.0 0.0 0.00 0.00 0.00 46 1012.0
20260504191541 71 280 0.0 0.0 0.00 0.00 0.00 46 1012.2
20260504190039 71 202 0.0 0.0 0.00 0.00 0.00 47 1012.5
20260504184537 70 201 0.0 0.0 0.00 0.00 0.00 47 1012.5
20260504183035 70 269 0.0 0.0 0.00 0.00 0.00 45 1012.5
20260504181531 70 232 0.0 0.0 0.00 0.00 0.00 47 1012.8
20260504180029 70 160 0.0 0.0 0.00 0.00 0.00 45 1013.1
20260504174525 69 311 0.0 0.0 0.00 0.00 0.00 47 1013.3
20260504173025 68 263 0.0 0.0 0.00 0.00 0.00 47 1013.6
20260504171524 68 238 0.0 0.0 0.00 0.00 0.00 48 1013.9
20260504081547 33 127 0.0 0.0 0.00 0.00 0.00 92 1016.7
20260504050015 43 241 0.0 0.0 0.00 0.00 0.00 74 1016.7
20260504044507 43 243 0.0 0.0 0.00 0.00 0.00 73 1016.8
20260504043004 44 243 0.0 0.0 0.00 0.00 0.00 72 1016.8
20260504041601 44 251 0.0 0.0 0.00 0.00 0.00 71 1016.5
20260504040058 45 248 0.0 0.0 0.00 0.00 0.00 70 1016.4
20260504034600 45 243 0.0 0.0 0.00 0.00 0.00 69 1016.2
20260504033102 45 252 0.0 0.0 0.00 0.00 0.00 67 1016.1
20260504031600 46 240 0.0 0.0 0.00 0.00 0.00 66 1016.2
20260504030056 47 263 0.0 0.0 0.00 0.00 0.00 64 1016.0
20260504024556 48 261 0.0 0.0 0.00 0.00 0.00 62 1015.9
20260504023055 48 249 0.0 0.0 0.00 0.00 0.00 61 1015.9
20260504021556 49 262 0.0 0.0 0.00 0.00 0.00 59 1016.0
20260504020131 49 248 0.0 0.0 0.00 0.00 0.00 60 1016.0
20260504014604 49 248 0.0 0.0 0.00 0.00 0.00 58 1015.9
20260504013115 50 247 0.0 0.0 0.00 0.00 0.00 56 1015.7
20260504011552 51 257 0.0 0.0 0.00 0.00 0.00 55 1015.5
20260504010051 52 267 0.0 0.0 0.00 0.00 0.00 53 1015.5
20260504004620 52 257 0.0 0.0 0.00 0.00 0.00 52 1015.3